Weather History for Provincetown, MA

Change the Weather History Date:

Saturday, January 19, 2013

  Actual Average Record
Temperature  
Mean Temperature 36 °F -  
Max Temperature 46 °F 32 °F 48 °F (1999)
Min Temperature 26 °F 22 °F 6 °F (1997)
Degree Days  
Heating Degree Days 29    
Moisture  
Dew Point 30 °F    
Average Humidity 69    
Maximum Humidity 100    
Minimum Humidity 51    
Precipitation  
Precipitation 0.00 in - - ()
Sea Level Pressure  
Sea Level Pressure 30.16 in    
Wind  
Wind Speed 20 mph (SW)    
Max Wind Speed 38 mph    
Max Gust Speed 50 mph    
Visibility 10 miles    
Events      
Averages and records for this station are not official NWS values.
T = Trace of Precipitation, MM = Missing Value Source: NWS Daily Summary

Daily Weather History Graph

Daily Weather History Graph

Search for Another Location

Airport:

Trip Planner

Search our weather history database for the weather conditions in past years. The results will help you decide how hot, cold, wet, or windy it might be!

Date:

Astronomy

Jan. 19, 2013 Rise Set
Actual Time 7:04 AM EST 4:39 PM EST
Civil Twilight 6:33 AM EST 5:10 PM EST
Nautical Twilight 5:59 AM EST 5:44 PM EST
Astronomical Twilight 5:26 AM EST 6:17 PM EST
Moon 11:05 AM EST (1/19) 12:33 AM EST (1/19)
Length of Visible Light 10h 36m
Length of Day
9h 35m
First Quarter, 57% of the Moon is Illuminated
Jan 19
First Quarter
Jan 26
Full
Feb 3
Last Quarter
Feb 10
New
Feb 17
First Quarter

Hourly Weather History & Observations

Time (EST) Temp. Windchill Dew Point Humidity Pressure Visibility Wind Dir Wind Speed Gust Speed Precip Events Conditions
12:15 AM 26.6 °F 14.3 °F 10.4 °F 51% 30.44 in 10.0 mi WSW 16.1 mph - N/A   Mostly Cloudy
12:35 AM 26.6 °F 13.8 °F 10.4 °F 51% 30.43 in 10.0 mi SW 17.3 mph - N/A   Scattered Clouds
1:15 AM 28.4 °F 17.0 °F 14.0 °F 55% 30.41 in 10.0 mi SW 15.0 mph 19.6 mph N/A   Overcast
1:35 AM 28.4 °F 17.5 °F 14.0 °F 55% 30.41 in 10.0 mi SW 13.8 mph 20.7 mph N/A   Overcast
1:55 AM 28.4 °F 18.0 °F 14.0 °F 55% 30.42 in 10.0 mi SW 12.7 mph - N/A   Overcast
2:15 AM 30.2 °F 20.2 °F 14.0 °F 51% 30.39 in 10.0 mi SSW 12.7 mph 20.7 mph N/A   Overcast
2:35 AM 30.2 °F 20.2 °F 14.0 °F 51% 30.39 in 10.0 mi SSW 12.7 mph 17.3 mph N/A   Overcast
2:55 AM 30.2 °F 20.2 °F 15.8 °F 55% 30.38 in 10.0 mi SSW 12.7 mph 19.6 mph N/A   Overcast
3:15 AM 30.2 °F 20.8 °F 17.6 °F 60% 30.37 in 10.0 mi SSW 11.5 mph 20.7 mph N/A   Overcast
3:55 AM 33.8 °F 22.8 °F 23.0 °F 65% 30.34 in 10.0 mi SSW 18.4 mph 27.6 mph N/A   Overcast
4:15 AM 33.8 °F 22.8 °F 24.8 °F 70% 30.32 in 10.0 mi SSW 18.4 mph 25.3 mph N/A   Overcast
4:35 AM 33.8 °F 23.9 °F 23.0 °F 65% 30.32 in 10.0 mi SW 15.0 mph 23.0 mph N/A   Mostly Cloudy
4:55 AM 33.8 °F 22.2 °F 24.8 °F 70% 30.30 in 10.0 mi SSW 20.7 mph 26.5 mph N/A   Clear
5:15 AM 35.6 °F 24.5 °F 26.6 °F 70% 30.29 in 10.0 mi SSW 20.7 mph 26.5 mph N/A   Clear
5:35 AM 35.6 °F 24.0 °F 28.4 °F 75% 30.28 in 10.0 mi SSW 23.0 mph 29.9 mph N/A   Clear
5:55 AM 37.4 °F 27.2 °F 28.4 °F 70% 30.27 in 10.0 mi SSW 19.6 mph 29.9 mph N/A   Mostly Cloudy
6:35 AM 37.4 °F 25.6 °F 30.2 °F 75% 30.24 in 10.0 mi SSW 26.5 mph 34.5 mph N/A   Overcast
6:55 AM 37.4 °F 25.6 °F 28.4 °F 70% 30.24 in 10.0 mi SSW 26.5 mph 35.7 mph N/A   Mostly Cloudy
7:15 AM 37.4 °F 26.4 °F 28.4 °F 70% 30.24 in 10.0 mi SSW 23.0 mph 34.5 mph N/A   Mostly Cloudy
7:35 AM 39.2 °F 28.3 °F 30.2 °F 70% 30.24 in 10.0 mi SW 25.3 mph 32.2 mph N/A   Overcast
7:55 AM 39.2 °F 28.7 °F 30.2 °F 70% 30.23 in 10.0 mi SW 23.0 mph 38.0 mph N/A   Mostly Cloudy
8:15 AM 39.2 °F 27.4 °F 30.2 °F 70% 30.23 in 10.0 mi SW 29.9 mph 38.0 mph N/A   Scattered Clouds
8:35 AM 41.0 °F 31.4 °F 32.0 °F 70% 30.23 in 10.0 mi SW 21.9 mph 39.1 mph N/A   Partly Cloudy
9:35 AM 42.8 °F 31.9 °F 33.8 °F 70% 30.21 in 10.0 mi SW 32.2 mph 43.7 mph N/A   Clear
9:55 AM 44.6 °F 33.6 °F 33.8 °F 66% 30.21 in 10.0 mi SW 38.0 mph 44.9 mph N/A   Partly Cloudy
10:15 AM 44.6 °F 33.8 °F 33.8 °F 66% 30.19 in 10.0 mi SW 36.8 mph 43.7 mph N/A   Clear
10:35 AM 44.6 °F 34.4 °F 33.8 °F 66% 30.19 in 10.0 mi SW 32.2 mph 43.7 mph N/A   Clear
10:55 AM 44.6 °F 33.9 °F 33.8 °F 66% 30.17 in 10.0 mi SW 35.7 mph 47.2 mph N/A   Partly Cloudy
1:35 PM 46.4 °F 36.5 °F 46.4 °F 100% 30.05 in - SW 34.5 mph 46.0 mph N/A   Unknown
1:55 PM 46.4 °F 36.4 °F 30.2 °F 53% 30.04 in - SW 35.7 mph 48.3 mph N/A   Clear
2:15 PM 46.4 °F 36.4 °F 32.0 °F 57% 30.05 in 10.0 mi SW 35.7 mph 49.5 mph N/A   Partly Cloudy
2:55 PM 46.4 °F 36.5 °F 33.8 °F 62% 30.05 in 10.0 mi SW 34.5 mph 40.3 mph N/A   Clear
3:15 PM 46.4 °F 37.0 °F 33.8 °F 62% 30.04 in 10.0 mi SW 31.1 mph 44.9 mph N/A   Clear
3:35 PM 44.6 °F 34.7 °F 33.8 °F 66% 30.04 in 10.0 mi SW 29.9 mph 41.4 mph N/A   Clear
4:15 PM 44.6 °F 35.5 °F 33.8 °F 66% 30.04 in 10.0 mi SW 25.3 mph 34.5 mph N/A   Clear
4:35 PM 44.6 °F 35.9 °F 33.8 °F 66% 30.03 in 10.0 mi SW 23.0 mph 33.4 mph N/A   Mostly Cloudy
4:55 PM 42.8 °F 33.5 °F 33.8 °F 70% 30.03 in 10.0 mi SW 23.0 mph 31.1 mph N/A   Partly Cloudy
5:35 PM 42.8 °F 33.8 °F 33.8 °F 70% 30.03 in 10.0 mi SW 21.9 mph 29.9 mph N/A   Clear
5:55 PM 42.8 °F 33.5 °F 35.6 °F 76% 30.04 in 10.0 mi SW 23.0 mph 29.9 mph N/A   Clear
6:15 PM 42.8 °F 34.0 °F 33.8 °F 70% 30.04 in 10.0 mi SW 20.7 mph 25.3 mph N/A   Clear
6:35 PM 42.8 °F 34.3 °F 35.6 °F 76% 30.04 in 10.0 mi SW 19.6 mph 24.2 mph N/A   Clear
6:55 PM 42.8 °F 34.8 °F 35.6 °F 76% 30.04 in 10.0 mi SW 17.3 mph 24.2 mph N/A   Clear
7:15 PM 42.8 °F 34.8 °F 35.6 °F 76% 30.04 in 10.0 mi SW 17.3 mph - N/A   Clear
7:55 PM 42.8 °F 34.8 °F 35.6 °F 76% 30.04 in 10.0 mi SW 17.3 mph - N/A   Overcast
8:15 PM 42.8 °F 34.8 °F 37.4 °F 81% 30.03 in 10.0 mi SW 17.3 mph - N/A   Scattered Clouds
8:35 PM 42.8 °F 35.1 °F 37.4 °F 81% 30.03 in 10.0 mi SW 16.1 mph - N/A   Clear
8:55 PM 42.8 °F 35.1 °F 35.6 °F 76% 30.02 in 10.0 mi SW 16.1 mph 23.0 mph N/A   Clear
9:15 PM 42.8 °F 35.4 °F 37.4 °F 81% 30.01 in 10.0 mi SW 15.0 mph - N/A   Clear
9:35 PM 42.8 °F 35.1 °F 35.6 °F 76% 30.01 in 10.0 mi SW 16.1 mph - N/A   Clear
10:15 PM 42.8 °F 35.4 °F 37.4 °F 81% 30.00 in 10.0 mi SW 15.0 mph - N/A   Clear
10:35 PM 44.6 °F 36.9 °F 37.4 °F 76% 29.99 in 10.0 mi SW 18.4 mph 24.2 mph N/A   Clear
10:55 PM 44.6 °F 37.4 °F 37.4 °F 76% 29.98 in 10.0 mi SSW 16.1 mph 20.7 mph N/A   Clear
11:15 PM 44.6 °F 37.4 °F 37.4 °F 76% 29.96 in 10.0 mi SW 16.1 mph 21.9 mph N/A   Clear
11:35 PM 44.6 °F 37.8 °F 37.4 °F 76% 29.95 in 10.0 mi SSW 15.0 mph 21.9 mph N/A   Clear
11:55 PM 44.6 °F 38.4 °F 39.2 °F 81% 29.95 in 10.0 mi SSW 12.7 mph - N/A   Clear